User: anonymous
Location: Plymouth
(43.7570°N, 71.6890°W)
Time: 17:24:14
(UTC-04:00)
Language:

COSMOS 2406 - Orbit

View from above orbital plane
View from above orbital plane
View from above satellite
View from above satellite

Ground track
Ground track

The orbit data is extracted from the following two-line orbital elements,

1 28352U 04021A   14107.17669657  .00000399  00000-0  24676-3 0  2731
2 28352 071.0056 019.9019 0013215 038.2708 111.3266 14.11332437507595
Epoch (UTC): 17 April 2014 04:14:26
Eccentricity: 0.0013215
inclination: 71.0056°
perigee height: 845 km
apogee height: 864 km
right ascension of ascending node: 19.9019°
argument of perigee: 38.2708°
revolutions per day: 14.11332437
mean anomaly at epoch: 111.3266°
orbit number at epoch: 50759

The dashed part of the orbit path shows where the satellite is in the earth's shadow,  

DLR